"startDT [UTC]","vpos","CH4 [ppm]","stdev(CH4) [ppm]","CO2 [ppm]","stdev(CO2) [ppm]","H2O_reported [%]","stdev(H2O_reported)","CavityPressure [torr]","CavityTemp [C]","OutletValve","CH4_dry [ppm]","CO2_dry [ppm]","DasTemp [C]","EtalonTemp [C]","WarmBoxTemp [C]","MPVPosition","T_ECpre [C]","T_EC1 [C]","T_EC2 [C]","p_inlet [hPa]","p_in [hPa]","p_out [hPa]","T_inlet [C]","RH_inlet [%]","dwpt_inlet [C]","T_vent [C]","RH_vent [%]","dwpt_vent [C]","flow_vent [l min-1]","flow_inlet [l min-1]","dwpt_sample [C]","T_room [C]"
2015-06-14 08:27:00,0.0,,,,,,,,,,,,,,,,,,0.11,-272.72,-272.77,-1,1003,6,17.7,27.6,-1.3,17.7,27.7,-1.2,5.73,2.04,-3.6,16.6
2015-06-14 08:28:00,0.0,,,,,,,,,,,,,,,,,,0.11,-272.74,-272.80,0,1005,6,17.8,27.0,-1.5,17.8,27.8,-1.1,5.73,1.95,-3.6,16.8
2015-06-14 08:29:00,0.0,,,,,,,,,,,,,,,,,,0.11,-272.75,-272.81,-1,1005,6,17.9,23.4,-3.3,17.9,24.1,-2.9,5.73,2.00,-3.6,17.1
2015-06-14 08:30:00,0.0,,,,,,,,,,,,,,,,,,0.11,-272.74,-272.82,-1,1007,6,17.9,22.9,-3.6,17.9,23.3,-3.3,5.73,1.59,-3.6,17.4
2015-06-14 08:31:00,0.0,,,,,,,,,,,,,,,,,,0.10,-272.76,-272.82,0,1005,5,18.0,22.6,-3.7,18.0,23.1,-3.4,5.73,2.39,-3.6,17.8
2015-06-14 08:32:00,0.0,,,,,,,,,,,,,,,,,,0.10,-272.77,-272.83,1,1008,5,18.1,22.1,-3.9,18.0,22.5,-3.7,5.73,2.27,-2.3,18.1
2015-06-14 08:33:00,0.0,,,,,,,,,,,,,,,,,,0.10,-272.77,-272.82,-0,1009,5,18.1,21.9,-4.0,18.1,22.3,-3.8,5.73,2.12,-2.3,18.5
2015-06-14 08:34:00,0.0,,,,,,,,,,,,,,,,,,0.10,-272.77,-272.82,1,1009,5,18.2,21.9,-4.0,18.1,22.3,-3.8,5.73,2.41,-2.4,18.9
2015-06-14 08:35:00,0.0,,,,,,,,,,,,,,,,,,0.10,-272.77,-272.83,2,1008,5,18.2,22.0,-3.8,18.2,22.4,-3.6,5.73,2.29,-2.5,19.2
2015-06-14 08:36:00,0.0,,,,,,,,,,,,,,,,,,0.11,-272.76,-272.83,-1,1006,5,18.2,21.9,-3.9,18.2,22.3,-3.7,5.73,1.44,-2.5,19.5
2015-06-14 08:37:00,0.0,,,,,,,,,,,,,,,,,,0.10,-272.77,-272.82,-3,1007,5,18.3,22.1,-3.8,18.2,22.4,-3.6,5.73,1.82,-2.6,19.9
2015-06-14 08:38:00,0.0,,,,,,,,,,,,,,,,,,0.10,-272.78,-272.83,-1,1009,5,18.3,22.3,-3.6,18.3,22.7,-3.4,5.73,2.38,-2.6,20.2
2015-06-14 08:39:00,0.0,,,,,,,,,,,,,,,,,,0.10,-272.76,-272.83,0,1006,5,18.4,22.4,-3.5,18.3,22.8,-3.3,5.73,1.54,-2.7,20.5
2015-06-14 08:40:00,0.0,,,,,,,,,,,,,,,,,,0.10,-272.76,-272.82,-2,1007,5,18.4,22.3,-3.5,18.3,22.7,-3.3,5.73,2.25,-2.7,20.8
2015-06-14 08:41:00,0.0,,,,,,,,,,,,,,,,,,0.10,-272.77,-272.82,-1,1005,5,18.5,21.9,-3.7,18.4,22.3,-3.5,5.73,1.82,-2.7,21.0
2015-06-14 08:42:00,0.0,,,,,,,,,,,,,,,,,,0.10,-272.76,-272.83,-0,1006,4,18.5,22.0,-3.6,18.4,22.5,-3.4,5.73,1.80,-2.8,21.3
2015-06-14 08:43:00,0.0,,,,,,,,,,,,,,,,,,0.10,-272.76,-272.83,-1,1006,4,18.6,22.1,-3.5,18.5,22.6,-3.3,5.73,1.99,-2.8,21.5
2015-06-14 08:44:00,0.0,,,,,,,,,,,,,,,,,,0.10,-272.76,-272.82,-1,1005,4,18.6,21.8,-3.6,18.5,22.4,-3.4,5.73,2.00,-2.8,21.8
2015-06-14 08:45:00,0.0,,,,,,,,,,,,,,,,,,0.10,-272.76,-272.83,-1,1005,4,18.6,21.5,-3.8,18.5,22.0,-3.6,5.73,1.96,-2.8,22.0
2015-06-14 08:46:00,0.0,,,,,,,,,,,,,,,,,,0.10,-272.77,-272.82,-1,1005,4,18.7,21.6,-3.7,18.6,22.1,-3.5,5.73,1.91,-2.8,22.2
2015-06-14 08:47:00,0.0,,,,,,,,,,,,,,,,,,0.10,-272.76,-272.82,-1,1005,4,18.8,21.6,-3.7,18.6,22.1,-3.5,5.73,1.89,-2.8,22.4
2015-06-14 08:48:00,0.0,,,,,,,,,,,,,,,,,,0.10,-272.77,-272.82,-1,1004,4,18.8,21.6,-3.6,18.7,22.1,-3.4,5.73,1.94,-2.8,22.6
2015-06-14 08:49:00,0.0,,,,,,,,,,,,,,,,,,0.10,-272.77,-272.83,-1,974,4,18.9,21.5,-3.6,18.7,22.2,-3.3,5.73,2.08,-2.8,22.8
2015-06-14 08:50:00,0.0,,,,,,,,,,,,,,,,,,0.10,-272.76,-272.82,-1,974,4,19.0,21.5,-3.5,18.7,22.3,-3.2,5.73,1.96,-2.8,23.0
2015-06-14 08:51:00,0.0,,,,,,,,,,,,,,,,,,0.10,-272.76,-272.82,-2,975,4,19.0,21.2,-3.6,18.8,22.1,-3.3,5.73,1.86,-2.8,23.2
2015-06-14 08:52:00,0.0,,,,,,,,,,,,,,,,,,0.10,-272.76,-272.82,-1,974,3,19.1,21.0,-3.8,18.8,21.8,-3.5,5.73,2.11,-2.8,23.3
2015-06-14 08:53:00,0.0,,,,,,,,,,,,,,,,,,0.10,-272.76,-272.82,-2,975,3,19.2,20.7,-3.9,18.9,21.5,-3.6,5.73,1.82,-2.8,23.5
2015-06-14 08:54:00,0.0,,,,,,,,,,,,,,,,,,0.10,-272.76,-272.82,-1,975,3,19.3,20.5,-4.0,19.0,21.3,-3.6,5.73,2.09,-2.8,23.6
2015-06-14 08:55:00,0.0,1.88293,0.00000,400.344,0.000,0.5795,0.0001,140.024,44.830,33832.52005,1.95162,403.299,30.563,45.064,45.042,0.00,0.10,-272.76,-272.82,-1,975,3,19.3,20.2,-4.0,19.0,21.2,-3.7,5.73,1.83,-2.8,23.8
2015-06-14 08:56:00,0.0,1.88248,0.00062,400.618,0.192,0.5824,0.0021,140.009,44.888,33908.06339,1.89358,403.469,30.737,45.096,45.062,0.00,0.10,-272.76,-272.82,-2,975,3,19.4,20.1,-4.0,19.1,21.0,-3.7,5.73,2.10,-2.7,23.9
2015-06-14 08:57:00,0.0,1.88174,0.00065,400.606,0.120,0.5881,0.0030,140.004,44.960,34035.57378,1.89281,403.490,31.063,45.130,45.079,0.00,0.10,-272.75,-272.81,-1,974,3,19.5,20.1,-4.0,19.1,21.0,-3.7,5.73,1.86,-2.7,24.1
2015-06-14 08:58:00,0.0,1.88153,0.00026,400.490,0.098,0.5968,0.0040,140.003,44.988,34132.25131,1.89276,403.415,31.398,45.138,45.075,0.00,0.10,-272.75,-272.82,-1,974,3,19.6,20.3,-3.8,19.2,21.2,-3.6,5.73,1.99,-2.7,24.2
2015-06-14 08:59:00,0.0,1.88162,0.00032,400.438,0.118,0.5964,0.0021,140.005,44.987,34206.52199,1.89284,403.365,31.715,45.130,45.062,0.00,0.10,-272.76,-272.82,-2,973,3,19.7,20.2,-3.8,19.3,21.2,-3.5,5.73,2.04,-2.7,24.4
2015-06-14 09:00:00,3.0,1.86976,0.00390,398.352,1.004,0.1415,0.2036,139.744,44.971,31277.65991,1.87332,399.253,32.004,45.116,45.045,0.00,0.10,-272.75,-272.82,-0,488,3,19.7,20.0,-3.9,19.3,20.9,-3.6,5.73,1.82,-2.7,24.5
2015-06-14 09:01:00,3.0,1.87357,0.00034,396.770,0.105,0.0270,0.0021,139.998,44.950,31172.18829,1.87402,396.906,32.264,45.100,45.029,0.00,0.10,-272.75,-272.81,-1,488,2,19.8,19.7,-4.0,19.4,20.6,-3.8,5.73,1.98,-2.7,24.7
2015-06-14 09:02:00,3.0,1.87392,0.00025,396.988,0.139,0.0252,0.0020,139.998,44.935,31138.25235,1.87439,397.093,32.488,45.086,45.016,0.00,0.10,-272.76,-272.82,-1,488,2,19.9,19.9,-3.8,19.4,20.7,-3.6,5.73,2.02,-2.7,24.8
2015-06-14 09:03:00,3.0,1.87417,0.00030,397.308,0.087,0.0216,0.0029,139.997,44.927,31107.91727,1.87455,397.410,32.710,45.075,45.006,0.00,0.10,-272.76,-272.81,-0,488,2,20.0,19.6,-3.9,19.5,20.6,-3.7,5.73,1.87,-2.7,25.0
2015-06-14 09:04:00,3.0,1.87449,0.00040,397.485,0.061,0.0179,0.0020,140.000,44.925,31078.11364,1.87479,397.565,32.907,45.067,44.999,0.00,0.10,-272.75,-272.81,-1,488,2,20.1,19.3,-4.1,19.6,20.2,-3.8,5.73,1.88,-2.7,25.1
2015-06-14 09:05:00,3.0,1.87446,0.00036,397.573,0.021,0.0141,0.0021,139.998,44.928,31053.45149,1.87474,397.639,33.076,45.062,44.995,0.00,0.10,-272.76,-272.82,-1,488,2,20.2,19.4,-4.0,19.7,20.3,-3.7,5.73,1.98,-2.6,25.2
2015-06-14 09:06:00,3.0,1.87468,0.00026,397.585,0.032,0.0117,0.0023,139.997,44.935,31030.84711,1.87489,397.643,33.215,45.059,44.993,0.00,0.10,-272.75,-272.81,-0,488,2,20.3,19.2,-4.0,19.7,20.1,-3.8,5.73,2.01,-2.6,25.3
2015-06-14 09:07:00,3.0,1.87460,0.00034,397.555,0.037,0.0091,0.0019,139.998,44.944,31013.70799,1.87478,397.599,33.367,45.058,44.993,0.00,0.10,-272.74,-272.81,-1,487,2,20.4,19.0,-4.0,19.9,20.0,-3.8,5.73,1.96,-2.6,25.4
2015-06-14 09:08:00,3.0,1.87479,0.00047,397.571,0.030,0.0074,0.0020,140.000,44.955,30999.76945,1.87484,397.606,33.518,45.059,44.994,0.00,0.10,-272.75,-272.81,-1,487,2,20.5,18.7,-4.2,19.9,19.7,-3.9,5.73,1.91,-2.6,25.6
2015-06-14 09:09:00,3.0,1.87472,0.00032,397.544,0.039,0.0056,0.0018,139.998,44.964,30987.65603,1.87489,397.570,33.676,45.060,44.995,0.00,0.10,-272.75,-272.81,-1,487,2,20.6,18.6,-4.2,20.0,19.6,-3.9,5.73,1.90,-2.6,25.7
2015-06-14 09:10:00,3.0,1.87477,0.00025,397.550,0.037,0.0053,0.0022,139.997,44.973,30978.90453,1.87486,397.576,33.827,45.061,44.996,0.00,0.10,-272.74,-272.81,-1,487,2,20.7,18.5,-4.1,20.1,19.5,-3.9,5.73,1.91,-2.6,25.9
2015-06-14 09:11:00,3.0,1.87447,0.00029,397.551,0.020,0.0040,0.0018,140.000,44.980,30972.64589,1.87456,397.571,33.972,45.062,44.997,0.00,0.10,-272.74,-272.81,-1,487,2,20.8,18.4,-4.1,20.2,19.4,-3.8,5.73,1.92,-2.5,26.0
2015-06-14 09:12:00,3.0,1.87458,0.00035,397.547,0.027,0.0047,0.0022,140.001,44.985,30968.17620,1.87466,397.570,34.109,45.063,44.998,0.00,0.10,-272.75,-272.81,-1,487,1,20.9,18.4,-4.0,20.3,19.3,-3.8,5.73,1.93,-2.5,26.1
2015-06-14 09:13:00,3.0,1.87471,0.00026,397.554,0.023,0.0035,0.0023,140.001,44.989,30963.11586,1.87478,397.572,34.240,45.064,44.999,0.00,0.10,-272.75,-272.81,-1,487,1,21.0,18.4,-3.9,20.4,19.4,-3.7,5.73,1.93,-2.5,26.2
2015-06-14 09:14:00,3.0,1.87505,0.00026,397.576,0.033,0.0024,0.0013,140.000,44.992,30957.24977,1.87507,397.586,34.373,45.064,45.000,0.00,0.10,-272.74,-272.81,-1,487,1,21.1,18.3,-3.9,20.5,19.3,-3.7,5.73,1.93,-2.4,26.4
2015-06-14 09:15:00,3.0,1.87466,0.00028,397.580,0.017,0.0033,0.0021,140.002,44.994,30957.36056,1.87474,397.595,34.490,45.065,45.000,0.00,0.10,-272.75,-272.81,-1,487,1,21.2,18.3,-3.9,20.6,19.3,-3.6,5.73,1.93,-2.5,26.5
2015-06-14 09:16:00,3.0,1.87464,0.00033,397.559,0.029,0.0030,0.0018,139.998,44.996,30954.41027,1.87468,397.574,34.609,45.065,45.000,0.00,0.10,-272.75,-272.81,-1,487,1,21.3,18.1,-3.9,20.7,19.2,-3.6,5.73,1.94,-2.5,26.6
2015-06-14 09:17:00,3.0,1.87504,0.00043,397.554,0.035,0.0029,0.0015,139.996,44.997,30951.45531,1.87506,397.567,34.731,45.065,45.000,0.00,0.10,-272.74,-272.80,-1,487,1,21.4,18.1,-3.8,20.8,19.2,-3.5,5.73,1.94,-2.4,26.7
2015-06-14 09:18:00,3.0,1.87530,0.00043,397.572,0.027,0.0027,0.0020,140.002,44.998,30949.62816,1.87533,397.585,34.835,45.065,45.000,0.00,0.10,-272.74,-272.81,-1,487,1,21.5,17.9,-3.9,20.9,19.0,-3.6,5.73,1.95,-2.4,26.8
2015-06-14 09:19:00,3.0,1.87531,0.00029,397.576,0.032,0.0023,0.0018,140.000,44.999,30947.58836,1.87540,397.589,34.940,45.066,45.000,0.00,0.10,-272.75,-272.81,-1,487,1,21.6,17.7,-3.9,21.0,18.8,-3.7,5.73,1.95,-2.4,26.9
2015-06-14 09:20:00,3.0,1.87509,0.00029,397.542,0.029,0.0016,0.0010,140.000,44.999,30947.77996,1.87510,397.551,35.046,45.066,45.001,0.00,0.10,-272.74,-272.80,-1,487,0,21.7,17.7,-3.9,21.1,18.7,-3.6,5.73,1.95,-2.4,27.0
2015-06-14 09:21:00,3.0,1.87524,0.00030,397.552,0.040,0.0036,0.0027,139.999,44.999,30945.54412,1.87528,397.566,35.142,45.066,45.001,0.00,0.10,-272.74,-272.79,-1,486,0,21.8,17.6,-3.9,21.2,18.6,-3.6,5.73,1.95,-2.3,27.2
2015-06-14 09:22:00,3.0,1.87551,0.00037,397.567,0.024,0.0024,0.0015,139.998,45.000,30945.38469,1.87554,397.580,35.227,45.066,45.001,0.00,0.10,-272.75,-272.81,-1,486,0,21.9,17.7,-3.7,21.3,18.7,-3.5,5.73,1.92,-2.3,27.3
2015-06-14 09:23:00,3.0,1.87556,0.00038,397.567,0.030,0.0019,0.0018,139.999,45.000,30947.22570,1.87559,397.574,35.322,45.066,45.001,0.00,0.10,-272.74,-272.81,-1,486,0,22.0,17.7,-3.6,21.4,18.7,-3.4,5.73,1.89,-2.3,27.4
2015-06-14 09:24:00,3.0,1.87572,0.00025,397.558,0.021,0.0013,0.0020,140.001,45.000,30945.18165,1.87574,397.565,35.417,45.066,45.001,0.00,0.10,-272.73,-272.80,-1,486,-0,22.1,17.6,-3.6,21.5,18.6,-3.4,5.73,1.87,-2.3,27.5
2015-06-14 09:25:00,2.0,1.84993,0.01040,390.741,2.818,0.0262,0.0374,140.023,45.001,31536.91795,1.85205,391.086,35.510,45.066,45.001,0.00,0.10,-272.73,-272.80,-1,573,-0,22.2,17.6,-3.5,21.6,18.6,-3.3,5.73,1.92,-2.3,27.6
2015-06-14 09:26:00,2.0,1.84562,0.00043,389.536,0.034,0.0135,0.0026,140.003,45.001,31571.90592,1.84588,389.597,35.593,45.066,45.001,0.00,0.10,-272.75,-272.81,-1,575,-0,22.3,17.5,-3.6,21.7,18.5,-3.3,5.73,1.94,-2.3,27.7
2015-06-14 09:27:00,2.0,1.84543,0.00038,389.582,0.025,0.0131,0.0023,140.001,45.001,31586.57805,1.84571,389.642,35.674,45.066,45.001,0.00,0.10,-272.74,-272.80,-1,575,-0,22.4,17.4,-3.6,21.8,18.4,-3.3,5.73,1.98,-2.2,27.8
2015-06-14 09:28:00,2.0,1.84572,0.00036,389.575,0.028,0.0106,0.0021,140.000,45.001,31598.49115,1.84589,389.623,35.755,45.066,45.001,0.00,0.10,-272.74,-272.80,-1,576,-3,22.5,17.2,-3.6,21.8,18.3,-3.3,5.73,1.93,-2.2,27.9
2015-06-14 09:29:00,2.0,1.84584,0.00037,389.630,0.024,0.0073,0.0023,139.997,45.001,31607.47502,1.84597,389.664,35.837,45.066,45.001,0.00,0.10,-272.74,-272.81,-1,576,-1,22.6,17.2,-3.6,21.9,18.2,-3.3,5.73,1.85,-2.2,28.0
2015-06-14 09:30:00,2.0,1.84581,0.00026,389.593,0.021,0.0057,0.0018,139.999,45.001,31616.00846,1.84592,389.622,35.909,45.066,45.001,0.00,0.10,-272.74,-272.80,-1,576,-1,22.7,17.2,-3.5,22.0,18.2,-3.2,5.73,1.86,-2.2,28.1
2015-06-14 09:31:00,2.0,1.84599,0.00040,389.589,0.031,0.0044,0.0022,139.999,45.001,31620.59835,1.84605,389.608,35.980,45.066,45.001,0.00,0.10,-272.73,-272.79,-2,576,-1,22.8,17.2,-3.4,22.1,18.1,-3.2,5.73,1.95,-2.2,28.2
2015-06-14 09:32:00,2.0,1.84604,0.00034,389.636,0.028,0.0028,0.0018,139.997,45.001,31627.06696,1.84605,389.648,36.048,45.066,45.001,0.00,0.10,-272.74,-272.80,-2,576,-1,22.9,17.2,-3.3,22.2,18.2,-3.1,5.73,1.96,-2.1,28.3
2015-06-14 09:33:00,2.0,1.84611,0.00031,389.626,0.024,0.0024,0.0025,140.000,45.001,31632.32777,1.84616,389.639,36.129,45.066,45.001,0.00,0.10,-272.74,-272.80,-1,576,-1,22.9,17.0,-3.4,22.3,18.0,-3.1,5.73,1.85,-2.1,28.3
2015-06-14 09:34:00,2.0,1.84580,0.00022,389.605,0.029,0.0019,0.0018,139.999,45.001,31637.93272,1.84589,389.615,36.198,45.066,45.001,0.00,0.10,-272.74,-272.79,-1,576,-1,23.0,16.8,-3.5,22.4,17.8,-3.2,5.73,1.84,-2.1,28.5
2015-06-14 09:35:00,2.0,1.84579,0.00037,389.622,0.025,0.0014,0.0011,140.000,45.001,31643.60068,1.84579,389.627,36.251,45.066,45.001,0.00,0.10,-272.73,-272.80,-1,576,-2,23.1,16.6,-3.6,22.5,17.6,-3.3,5.73,1.98,-2.1,28.5
2015-06-14 09:36:00,2.0,1.84594,0.00031,389.608,0.025,0.0023,0.0014,139.999,45.001,31647.86690,1.84601,389.619,36.313,45.066,45.001,0.00,0.10,-272.74,-272.80,-1,576,-2,23.1,16.6,-3.6,22.6,17.5,-3.3,5.73,1.91,-2.0,28.6
2015-06-14 09:37:00,2.0,1.84577,0.00027,389.626,0.025,0.0005,0.0020,140.002,45.001,31652.20847,1.84579,389.629,36.379,45.066,45.001,0.00,0.10,-272.73,-272.80,-2,576,-2,23.2,16.6,-3.5,22.6,17.6,-3.2,5.73,1.80,-2.0,28.7
2015-06-14 09:38:00,2.0,1.84578,0.00032,389.652,0.027,0.0014,0.0013,139.999,45.001,31652.39122,1.84580,389.658,36.438,45.066,45.001,0.00,0.10,-272.73,-272.79,-1,576,-2,23.3,16.6,-3.4,22.7,17.6,-3.1,5.73,1.93,-2.0,28.8
2015-06-14 09:39:00,2.0,1.84563,0.00054,389.633,0.028,0.0013,0.0017,139.997,45.001,31655.91167,1.84564,389.637,36.495,45.066,45.001,0.00,0.10,-272.73,-272.81,-2,576,-2,23.4,16.6,-3.4,22.8,17.5,-3.1,5.73,1.95,-2.0,28.8
2015-06-14 09:40:00,2.0,1.84581,0.00031,389.638,0.024,0.0015,0.0014,139.998,45.001,31659.29872,1.84584,389.645,36.550,45.066,45.001,0.00,0.10,-272.73,-272.80,-2,575,-2,23.4,16.4,-3.5,22.9,17.4,-3.2,5.73,1.78,-2.0,28.9
2015-06-14 09:41:00,2.0,1.84602,0.00032,389.651,0.027,0.0006,0.0016,140.000,45.001,31661.69199,1.84606,389.657,36.602,45.066,45.001,0.00,0.10,-272.73,-272.79,-1,575,-2,23.5,16.3,-3.5,23.0,17.2,-3.2,5.73,1.93,-1.9,29.0
2015-06-14 09:42:00,2.0,1.84569,0.00033,389.627,0.028,0.0002,0.0012,139.998,45.001,31665.99187,1.84568,389.628,36.630,45.066,45.000,0.00,0.10,-272.73,-272.80,-1,575,-2,23.6,16.2,-3.5,23.0,17.2,-3.2,5.73,1.92,-1.9,29.1
2015-06-14 09:43:00,2.0,1.84577,0.00042,389.625,0.027,0.0003,0.0019,140.001,45.001,31668.24835,1.84578,389.625,36.631,45.065,45.000,0.00,0.10,-272.74,-272.80,-2,575,-3,23.7,16.2,-3.5,23.1,17.0,-3.2,5.73,1.77,-1.9,29.1
2015-06-14 09:44:00,2.0,1.84557,0.00034,389.610,0.020,0.0008,0.0017,139.995,45.000,31666.85459,1.84561,389.615,36.621,45.065,44.999,0.00,0.10,-272.73,-272.79,-1,575,-3,23.7,16.2,-3.5,23.2,17.0,-3.2,5.73,1.94,-1.9,29.2
2015-06-14 09:45:00,2.0,1.84584,0.00050,389.644,0.033,0.0001,0.0021,139.999,44.999,31663.59971,1.84580,389.645,36.560,45.064,44.999,0.00,0.10,-272.73,-272.79,-1,575,-3,23.7,16.1,-3.5,23.2,17.0,-3.2,5.73,1.91,-1.9,29.1
2015-06-14 09:46:00,2.0,1.84598,0.00044,389.635,0.035,0.0004,0.0021,140.002,44.999,31660.61910,1.84597,389.636,36.475,45.063,44.998,0.00,0.10,-272.73,-272.79,-1,575,-3,23.7,16.0,-3.6,23.2,16.9,-3.3,5.73,1.80,-1.8,29.1
2015-06-14 09:47:00,2.0,1.84589,0.00026,389.629,0.026,0.0013,0.0020,140.001,44.998,31656.14149,1.84593,389.635,36.391,45.063,44.998,0.00,0.10,-272.73,-272.79,-1,575,-3,23.7,15.8,-3.8,23.3,16.7,-3.4,5.73,1.85,-1.8,29.2
2015-06-14 09:48:00,2.0,1.84582,0.00032,389.607,0.034,0.0005,0.0019,139.998,44.997,31648.85044,1.84583,389.611,36.284,45.063,44.998,0.00,0.10,-272.73,-272.79,-1,575,-3,23.7,15.6,-4.0,23.3,16.4,-3.7,5.73,1.93,-1.8,29.2
2015-06-14 09:49:00,2.0,1.84583,0.00030,389.630,0.023,0.0016,0.0021,139.998,44.997,31643.10696,1.84584,389.635,36.168,45.063,44.998,0.00,0.10,-272.73,-272.80,-2,575,-3,23.8,15.3,-4.1,23.3,16.1,-3.9,5.73,1.90,-1.8,29.2
2015-06-14 09:50:00,4.0,1.77609,0.02771,371.118,7.692,0.0056,0.0063,140.019,44.997,31304.87105,1.78106,371.793,36.025,45.063,44.998,0.00,0.10,-272.73,-272.80,-2,513,-3,23.8,15.3,-4.2,23.3,16.0,-3.9,5.73,1.87,-1.8,29.1
2015-06-14 09:51:00,4.0,1.76347,0.00028,367.702,0.074,0.0018,0.0017,139.999,44.997,31279.50428,1.76348,367.703,35.888,45.063,44.998,0.00,0.10,-272.72,-272.80,-2,513,-3,23.8,15.1,-4.3,23.3,15.9,-4.0,5.73,1.81,-1.8,29.0
2015-06-14 09:52:00,4.0,1.76360,0.00032,367.790,0.027,0.0026,0.0026,139.997,44.997,31261.22198,1.76365,367.801,35.741,45.063,44.998,0.00,0.10,-272.73,-272.79,-2,512,-3,23.8,14.9,-4.5,23.3,15.7,-4.2,5.73,1.85,-1.8,28.8
2015-06-14 09:53:00,4.0,1.76356,0.00044,367.764,0.039,0.0021,0.0021,139.999,44.997,31245.38293,1.76363,367.775,35.591,45.063,44.998,0.00,0.10,-272.73,-272.79,-1,512,-4,23.8,15.0,-4.3,23.4,15.7,-4.1,5.73,1.89,-1.7,28.7
2015-06-14 09:54:00,4.0,1.76344,0.00027,367.736,0.025,0.0013,0.0019,139.998,44.997,31233.24491,1.76345,367.742,35.434,45.063,44.998,0.00,0.10,-272.73,-272.79,-3,511,-4,23.9,15.0,-4.3,23.4,15.7,-4.1,5.73,1.91,-1.7,28.6
2015-06-14 09:55:00,4.0,1.76351,0.00030,367.735,0.024,0.0025,0.0016,139.999,44.997,31219.88712,1.76357,367.746,35.268,45.063,44.998,0.00,0.10,-272.73,-272.79,-3,511,-4,23.9,14.9,-4.4,23.4,15.6,-4.1,5.73,1.89,-1.7,28.5
2015-06-14 09:56:00,4.0,1.76340,0.00041,367.747,0.024,0.0013,0.0028,140.001,44.997,31206.68003,1.76341,367.752,35.116,45.064,44.998,0.00,0.10,-272.73,-272.80,-4,511,-4,23.9,14.7,-4.6,23.5,15.4,-4.3,5.73,1.87,-1.7,28.5
2015-06-14 09:57:00,4.0,1.76356,0.00029,367.746,0.016,0.0001,0.0019,139.998,44.997,31192.94305,1.76358,367.747,34.939,45.064,44.998,0.00,0.10,-272.73,-272.80,-4,511,-4,23.9,14.7,-4.5,23.5,15.3,-4.4,5.73,1.86,-1.6,28.5
2015-06-14 09:58:00,4.0,1.76365,0.00043,367.734,0.030,0.0011,0.0017,139.998,44.997,31178.49878,1.76363,367.738,34.764,45.064,44.998,0.00,0.10,-272.72,-272.79,-4,510,-4,23.9,14.8,-4.5,23.5,15.4,-4.3,5.73,1.88,-1.6,28.4
2015-06-14 09:59:00,4.0,1.76376,0.00029,367.746,0.035,0.0012,0.0021,139.999,44.997,31165.70197,1.76381,367.751,34.582,45.064,44.998,0.00,0.10,-272.73,-272.79,-4,510,-4,24.0,14.9,-4.4,23.5,15.5,-4.2,5.73,1.95,-1.6,28.3
2015-06-14 10:00:00,4.0,1.76386,0.00039,367.736,0.026,0.0007,0.0012,140.000,44.997,31153.93033,1.76382,367.740,34.401,45.064,44.998,0.00,0.10,-272.73,-272.79,-5,510,-4,23.9,15.0,-4.3,23.5,15.6,-4.1,5.73,1.97,-1.6,28.3
2015-06-14 10:01:00,4.0,1.76382,0.00037,367.741,0.035,0.0007,0.0023,139.998,44.997,31144.03452,1.76389,367.744,34.197,45.064,44.999,0.00,0.10,-272.72,-272.79,-6,510,-4,23.9,15.0,-4.3,23.5,15.6,-4.1,5.73,1.82,-1.6,28.2
2015-06-14 10:02:00,4.0,1.76365,0.00046,367.732,0.024,0.0007,0.0034,140.000,44.997,31135.02243,1.76366,367.736,34.011,45.065,44.999,0.00,0.10,-272.72,-272.79,-5,510,-4,23.9,14.9,-4.4,23.5,15.5,-4.2,5.73,1.85,-1.5,28.2
2015-06-14 10:03:00,4.0,1.76357,0.00031,367.717,0.019,0.0002,0.0018,140.002,44.997,31125.00894,1.76358,367.719,33.819,45.065,44.999,0.00,0.10,-272.73,-272.80,-6,510,-4,23.9,14.8,-4.5,23.5,15.4,-4.3,5.73,2.02,-1.5,28.2
2015-06-14 10:04:00,4.0,1.76328,0.00029,367.713,0.025,0.0005,0.0017,139.999,44.997,31116.58154,1.76328,367.713,33.650,45.065,45.000,0.00,0.10,-272.73,-272.80,-6,510,-4,23.9,14.7,-4.5,23.5,15.3,-4.3,5.73,1.86,-1.6,28.1
2015-06-14 10:05:00,4.0,1.76351,0.00025,367.722,0.030,-0.0001,0.0019,139.998,44.997,31107.24538,1.76349,367.722,33.508,45.065,44.999,0.00,0.10,-272.72,-272.79,-5,510,-4,23.9,14.7,-4.6,23.5,15.3,-4.4,5.73,1.86,-1.5,28.1
2015-06-14 10:06:00,4.0,1.76351,0.00027,367.724,0.029,0.0004,0.0019,139.999,44.998,31098.14675,1.76354,367.727,33.356,45.066,44.999,0.00,0.10,-272.73,-272.80,-7,510,-4,23.9,14.8,-4.5,23.5,15.4,-4.3,5.73,2.02,-1.6,28.1
2015-06-14 10:07:00,4.0,1.76352,0.00026,367.729,0.039,-0.0000,0.0015,139.998,44.998,31090.25264,1.76351,367.726,33.229,45.066,45.000,0.00,0.10,-272.73,-272.79,-6,509,-4,23.9,14.8,-4.5,23.5,15.4,-4.3,5.73,1.78,-1.6,28.1
2015-06-14 10:08:00,4.0,1.76374,0.00024,367.721,0.026,0.0008,0.0015,140.001,44.998,31082.92505,1.76374,367.727,33.110,45.066,44.999,0.00,0.10,-272.73,-272.80,-7,509,-5,23.8,14.8,-4.6,23.5,15.4,-4.3,5.73,2.00,-1.6,28.1
2015-06-14 10:09:00,4.0,1.76382,0.00032,367.721,0.026,-0.0010,0.0015,139.998,44.998,31075.16624,1.76382,367.716,33.010,45.066,44.999,0.00,0.10,-272.73,-272.80,-6,509,-5,23.9,14.8,-4.5,23.5,15.3,-4.4,5.73,1.86,-1.6,28.1
2015-06-14 10:10:00,4.0,1.76359,0.00028,367.717,0.019,0.0003,0.0020,139.998,44.998,31069.21499,1.76359,367.719,32.939,45.066,44.999,0.00,0.10,-272.73,-272.80,-7,509,-4,23.8,14.9,-4.4,23.5,15.5,-4.2,5.73,1.88,-1.6,28.0
2015-06-14 10:11:00,4.0,1.76360,0.00033,367.716,0.036,0.0001,0.0018,139.998,44.999,31065.12380,1.76362,367.718,32.869,45.065,44.999,0.00,0.10,-272.73,-272.79,-6,509,-5,23.8,15.0,-4.4,23.5,15.6,-4.2,5.73,1.98,-1.6,28.0
2015-06-14 10:12:00,4.0,1.76357,0.00036,367.729,0.041,-0.0007,0.0018,139.995,44.999,31060.01178,1.76358,367.723,32.801,45.065,44.999,0.00,0.10,-272.73,-272.79,-7,509,-5,23.8,15.0,-4.4,23.5,15.6,-4.2,5.73,1.80,-1.7,27.9
2015-06-14 10:13:00,4.0,1.76370,0.00030,367.729,0.034,0.0007,0.0015,139.999,44.999,31057.36762,1.76367,367.734,32.756,45.065,44.999,0.00,0.10,-272.74,-272.79,-6,509,-5,23.8,15.1,-4.3,23.5,15.7,-4.1,5.73,2.02,-1.7,27.9
2015-06-14 10:14:00,4.0,1.76361,0.00038,367.704,0.027,-0.0003,0.0010,140.000,44.999,31053.11980,1.76363,367.701,32.699,45.065,44.999,0.00,0.10,-272.73,-272.79,-7,509,-5,23.8,15.1,-4.3,23.4,15.7,-4.1,5.73,1.78,-1.7,27.9
2015-06-14 10:15:00,1.0,1.82042,0.02257,382.079,5.914,0.0238,0.0187,140.036,44.999,31500.45017,1.81742,381.733,32.666,45.065,44.999,0.00,0.10,-272.73,-272.79,-6,582,-5,23.8,15.2,-4.3,23.4,15.8,-4.1,5.73,2.05,-1.7,27.9
2015-06-14 10:16:00,1.0,1.82469,0.00047,384.218,0.064,0.0132,0.0020,140.001,44.999,31508.30373,1.82496,384.272,32.620,45.065,44.999,0.00,0.10,-272.73,-272.80,-7,580,-5,23.8,15.1,-4.3,23.4,15.7,-4.1,5.73,1.79,-1.7,27.8
2015-06-14 10:17:00,1.0,1.82481,0.00033,384.325,0.024,0.0126,0.0018,140.003,44.999,31506.88577,1.82498,384.383,32.565,45.065,44.999,0.00,0.10,-272.73,-272.79,-7,579,-5,23.7,15.0,-4.4,23.4,15.6,-4.2,5.73,2.02,-1.7,27.8
2015-06-14 10:18:00,1.0,1.82475,0.00038,384.331,0.034,0.0087,0.0016,139.998,44.999,31506.47631,1.82496,384.373,32.535,45.065,44.999,0.00,0.10,-272.72,-272.79,-7,578,-5,23.7,15.1,-4.4,23.4,15.7,-4.1,5.73,1.81,-1.7,27.8
2015-06-14 10:19:00,1.0,1.82493,0.00040,384.325,0.033,0.0073,0.0016,139.999,44.999,31506.04248,1.82502,384.358,32.500,45.066,44.999,0.00,0.10,-272.73,-272.79,-8,578,-5,23.7,15.2,-4.3,23.4,15.7,-4.1,5.73,1.99,-1.7,27.7
2015-06-14 10:20:00,1.0,1.82453,0.00027,384.328,0.024,0.0054,0.0024,139.998,44.999,31507.36613,1.82465,384.353,32.477,45.066,44.999,0.00,0.10,-272.73,-272.80,-6,578,-5,23.7,15.3,-4.2,23.4,15.8,-4.0,5.73,1.86,-1.8,27.7
2015-06-14 10:21:00,1.0,1.82467,0.00044,384.333,0.024,0.0022,0.0017,139.999,44.999,31506.03582,1.82470,384.343,32.441,45.066,44.999,0.00,0.10,-272.73,-272.79,-8,577,-5,23.7,15.4,-4.2,23.4,15.9,-3.9,5.73,1.92,-1.8,27.7
2015-06-14 10:22:00,1.0,1.82492,0.00038,384.362,0.027,0.0034,0.0020,140.001,44.999,31505.45684,1.82496,384.375,32.438,45.066,44.999,0.00,0.10,-272.73,-272.80,-7,577,-5,23.7,15.4,-4.1,23.4,16.0,-3.9,5.73,1.94,-1.8,27.7
2015-06-14 10:23:00,1.0,1.82477,0.00037,384.345,0.028,0.0021,0.0022,139.997,44.999,31505.31785,1.82484,384.357,32.431,45.066,44.999,0.00,0.10,-272.74,-272.80,-7,577,-5,23.7,15.5,-4.1,23.4,16.0,-3.9,5.73,1.84,-1.8,27.6
2015-06-14 10:24:00,1.0,1.82484,0.00032,384.386,0.037,0.0008,0.0021,139.999,44.999,31502.44929,1.82480,384.388,32.399,45.066,44.999,0.00,0.10,-272.73,-272.80,-8,577,-5,23.7,15.4,-4.2,23.3,16.0,-3.9,5.73,2.01,-1.8,27.6
2015-06-14 10:25:00,1.0,1.82484,0.00038,384.363,0.035,0.0010,0.0017,140.001,44.999,31503.73286,1.82490,384.369,32.375,45.066,44.999,0.00,0.10,-272.73,-272.79,-6,577,-5,23.7,15.3,-4.2,23.3,15.9,-4.0,5.73,1.78,-1.8,27.6
2015-06-14 10:26:00,1.0,1.82489,0.00019,384.356,0.032,0.0012,0.0020,139.997,44.999,31502.25745,1.82488,384.361,32.358,45.066,44.999,0.00,0.10,-272.74,-272.79,-7,576,-5,23.7,15.3,-4.3,23.3,15.8,-4.1,5.73,2.06,-1.8,27.5